Hourly Weather Roundup
Issued by NWS Central Illinois

Home | Current Version | Previous Version | Text Only | Print | Product List | Glossary On
Versions: 1 2 3 4 5 6 7 8 9 10 11 12 13 14 15 16 17 18 19 20 21 22 23 24 25 26 27 28 29 30 31 32 33 34 35 36 37 38 39 40 41 42 43 44 45 46 47 48 49 50
000
NZUS43 KILX 220510
HWRILX

AREA WEATHER ROUNDUP
NATIONAL WEATHER SERVICE, LINCOLN IL
1100 PM CST SAT JAN 21 2017


CITY           SKY/WX    TMP DP  RH WIND       PRES   REMARKS
BLOOMINGTON    CLOUDY    46  42  86 N7        29.60
CHAMPAIGN      CLOUDY    49  45  86 N5        29.59S
DANVILLE       RAIN      50  49  97 CALM      29.57S
DECATUR        CLOUDY    48  47  96 NE8       29.58F
EFFINGHAM      CLOUDY    50  50 100 CALM      29.59S
FLORA          PTCLDY    54  51  89 SE7       29.58S
GALESBURG      FOG       35  35 100 N3        29.59R VSB 1/4
JACKSONVILLE   CLOUDY    46  41  84 N6        29.57F
LACON          FOG       40  40 100 N3        29.60R VSB 1/4
LAWRENCEVILLE  PTCLDY    49  47  93 CALM      29.59F
LITCHFIELD     CLOUDY    50  45  81 N6        29.57S
$$


CITY           SKY/WX    TMP DP  RH WIND       PRES   REMARKS
LINCOLN        CLOUDY    45  43  95 CALM      29.59S
MACOMB           N/A     37  37 100 NE3       29.61R FOG
MATTOON        CLOUDY    52  49  89 NW7       29.58R
MT CARMEL AP   CLEAR     53  47  81 SE3       29.59S
OLNEY-NOBLE AP CLOUDY    54  52  94 SE6       29.58F
PARIS          PTCLDY    49  49  99 SE3       29.60S
PEORIA         PTCLDY    39  39 100 N3        29.59F FOG
PONTIAC        CLOUDY    41  41 100 CALM      29.61R
RANTOUL        CLOUDY    49  47  93 CALM      29.60R
SPRINGFIELD    CLOUDY    50  43  77 NE5       29.58S
TAYLORVILLE    CLOUDY    51  45  79 NE6       29.57S
$$

...REGIONAL REPORTS...


CITY           SKY/WX    TMP DP  RH WIND       PRES   REMARKS
CHICAGO O`HARE FOG       41  41 100 NW9       29.60R VSB 1/8
KANKAKEE       CLOUDY    40  40  98 CALM      29.60S
MOLINE         CLOUDY    44  38  79 NW3       29.59S
MOUNT STERLING CLOUDY    44  42  95 CALM      29.58S
MOUNT VERNON   CLOUDY    51  49  92 CALM      29.57S
PITTSFIELD     CLOUDY    48  44  85 NE5       29.59S
QUINCY         CLOUDY    43  42  97 NE3       29.58R FOG
ROCKFORD       DRZL/FOG  42  40  92 SW3       29.61R VSB 1
$$


CITY           SKY/WX    TMP DP  RH WIND       PRES   REMARKS
BURLINGTON     CLEAR     35  35 100 E3        29.58R FOG
CEDAR RAPIDS   CLEAR     34  33  96 S3        29.57R FOG
DES MOINES     PTCLDY    34  32  92 S5        29.56S FOG     WCI  30
KIRKSVILLE     CLOUDY    37  37 100 E3        29.56R FOG
OTTUMWA        FOG       30  29  96 CALM      29.57S VSB 1/4
ST LOUIS       CLOUDY    53  40  61 NE5       29.56S
$$


CITY           SKY/WX    TMP DP  RH WIND       PRES   REMARKS
TERRE HAUTE    CLEAR     49  46  90 CALM      29.60S
EVANSVILLE     PTCLDY    54  48  80 CALM      29.59F
INDIANAPOLIS   CLOUDY    54  49  83 SE7       29.61S
LAFAYETTE      TSTM      51  51 100 S5        29.59S VSB 1
MADISON        DRIZZLE   41  40  96 CALM      29.58S FOG
MILWAUKEE      CLOUDY    44  40  85 W6        29.59R
$$






USA.gov is the U.S. government's official web portal to all federal, state and local government web resources and services.